Flag for Philippines Weather past 2 weeks in Makati, Philippines

Now
84 °F

Passing clouds.


Feels Like: 98 °F
Forecast: 82 / 95 °F
Wind: 1 mph from North

Location: National Airport

Current Time: May 23, 2015 at 5:34:12 AM

Latest Report: May 23, 2015 at 5:00 AM


Visibility: 6 mi

Pressure: 29.83 "Hg

Humidity: 89%

Dew point: 81 °F

Location of MakatiLocation

Historic Weather in Makati — Graph

°F

Makati temperature yesterday

Maximum temperature yesterday: 95 °F (at 1:00 PM)
Minimum temperature yesterday: 75 °F (at 12:00 PM)
Average temperature yesterday: 87 °F

Past Weeks' High & Low Weather Summary

 TemperatureHumidityPressure
High97 °F (May 8, 4:00 PM)100% (May 23, 3:00 AM)30.01 "Hg (May 23, 3:00 AM)
Low36 °F (May 23, 3:00 AM)30% (May 18, 1:00 PM)29.68 "Hg (May 9, 2:00 PM)
Average87 °F67%29.83 "Hg
* Reported May 8 4:00 AM — May 23 4:00 AM, Makati, Weather by CustomWeather, © 2015

Note: Actual official high and low records may vary slightly from our data, if they occured in-between our weather recording intervals... More about our weather records

Advertising

Makati weather history for previous 24 hours

 ConditionsComfort  
Time TempWeatherWind HumidityBarometerVisibility
4:00 AM
Sat, May 23
36 °FPassing clouds.1 mph100%29.83 "HgN/A
3:00 AM36 °FPassing clouds.1 mph100%29.83 "HgN/A
2:00 AM82 °FPassing clouds.2 mph89%29.83 "HgN/A
1:00 AM82 °FPartly cloudy.3 mph94%29.86 "HgN/A
12:00 AM84 °FThunderstorms. Mostly cloudy.7 mph84%29.86 "HgN/A
11:50 PM
Fri, May 22
84 °FThunderstorms. Partly cloudy.8 mph79%29.86 "HgN/A
11:00 PM84 °FPartly cloudy.3 mph74%29.86 "HgN/A
10:00 PM86 °FThunderstorms. Passing clouds.6 mph79%29.86 "Hg6 mi
9:00 PM86 °FPassing clouds.6 mph79%29.86 "HgN/A
8:00 PM88 °FPassing clouds.6 mph75%29.83 "HgN/A
7:00 PM88 °FPassing clouds.7 mph70%29.83 "HgN/A
6:00 PM90 °FBroken clouds.7 mph67%29.80 "HgN/A
5:00 PM91 °FBroken clouds.8 mph59%29.77 "HgN/A
4:00 PM91 °FPartly sunny.10 mph59%29.77 "HgN/A
3:00 PM93 °FBroken clouds.13 mph49%29.77 "HgN/A
2:00 PM91 °FHot.N/A59%29.83 "HgN/A
1:00 PM95 °FScattered clouds.10 mph53%29.80 "HgN/A
12:00 PM75 °FScattered clouds.10 mph94%29.83 "HgN/A
11:00 AM93 °FScattered clouds.6 mph56%29.86 "HgN/A
10:00 AM88 °FScattered clouds.6 mph66%29.89 "HgN/A
9:00 AM88 °FScattered clouds.6 mph66%29.89 "HgN/A
8:00 AM88 °FPassing clouds.3 mph75%30.01 "HgN/A
7:00 AM86 °FScattered clouds.2 mph79%29.89 "HgN/A
6:00 AM82 °FScattered clouds.2 mph89%29.86 "HgN/A
5:00 AM82 °FPassing clouds.5 mph89%29.86 "HgN/A
Weather by CustomWeather, © 2015

See weather overviewHow to use our weather pages